User: anonymous
Location: Penticton
(49.5000°N, 119.5830°W)
Time: 11:06:07
(UTC-07:00)
Language:

NOSS 3-4 (A) - Orbit

View from above orbital plane
View from above orbital plane
View from above satellite
View from above satellite

Ground track
Ground track

The orbit data is extracted from the following two-line orbital elements,

1 31701U 07027A   14196.06558095 0.00000000  00000-0  00000-0 0    00
2 31701  63.4030 285.3032 0111000  39.4328 320.5672 13.40646771    09
Epoch (UTC): 15 July 2014 01:34:26
Eccentricity: 0.0111000
inclination: 63.4030°
perigee height: 1024 km
apogee height: 1190 km
right ascension of ascending node: 285.3032°
argument of perigee: 39.4328°
revolutions per day: 13.40646771
mean anomaly at epoch: 320.5672°
orbit number at epoch: 0

The dashed part of the orbit path shows where the satellite is in the earth's shadow,  

DLR